This is the latest recevied weather packets stored in our database for station/object KD8DLP-13. If no packets are shown the sender has not sent any weather packets the latest 10 day(s).
| Time | Temp. | Humidity | Pressure | Rain* | Wind** | Luminosity | Snow |
|---|---|---|---|---|---|---|---|
| 1777800091 | 6.11° C | 75% | 1013.6 hPa | 0 mm | - | 0 W/m² | - |
| 1777799786 | 5.56° C | 76% | 1013.6 hPa | 0 mm | - | 0 W/m² | - |
| 1777799484 | 5.56° C | 77% | 1013.7 hPa | 0 mm | - | 0 W/m² | - |
| 1777799180 | 5° C | 78% | 1013.8 hPa | 0 mm | - | 0 W/m² | - |
| 1777798875 | 4.44° C | 78% | 1013.8 hPa | 0 mm | - | 0 W/m² | - |
| 1777798572 | 4.44° C | 79% | 1013.7 hPa | 0 mm | - | 0 W/m² | - |
| 1777798269 | 3.89° C | 78% | 1013.7 hPa | 0 mm | - | 0 W/m² | - |
| 1777797965 | 4.44° C | 77% | 1013.8 hPa | 0 mm | - | 0 W/m² | - |
| 1777797663 | 4.44° C | 76% | 1013.9 hPa | 0 mm | - | 0 W/m² | - |
| 1777797361 | 4.44° C | 76% | 1013.8 hPa | 0 mm | - | 0 W/m² | - |
| 1777797058 | 4.44° C | 76% | 1013.9 hPa | 0 mm | - | 0 W/m² | - |
| 1777796754 | 5° C | 75% | 1014.1 hPa | 0 mm | - | 0 W/m² | - |
| 1777796451 | 5° C | 75% | 1013.9 hPa | 0 mm | - | 0 W/m² | - |
| 1777796151 | 5° C | 75% | 1014 hPa | 0 mm | - | 0 W/m² | - |
| 1777795848 | 5° C | 74% | 1013.9 hPa | 0 mm | - | 0 W/m² | - |
| 1777795544 | 5° C | 73% | 1013.9 hPa | 0 mm | - | 0 W/m² | - |
| 1777795241 | 5° C | 72% | 1014.1 hPa | 0 mm | - | 0 W/m² | - |
| 1777794938 | 5° C | 73% | 1014 hPa | 0 mm | - | 0 W/m² | - |
| 1777794634 | 5° C | 70% | 1014.1 hPa | 0 mm | - | 0 W/m² | - |
| 1777794330 | 5° C | 72% | 1014.3 hPa | 0 mm | - | 0 W/m² | - |
| 1777794026 | 5° C | 70% | 1014.2 hPa | 0 mm | - | 0 W/m² | - |
| 1777793722 | 5° C | 69% | 1014.3 hPa | 0 mm | - | 0 W/m² | - |
| 1777793421 | 5° C | 68% | 1014.3 hPa | 0 mm | - | 0 W/m² | - |
| 1777793118 | 5° C | 68% | 1014.2 hPa | 0 mm | - | 0 W/m² | - |
| 1777792815 | 5° C | 68% | 1014.3 hPa | 0 mm | - | 0 W/m² | - |
* Rain latest hour (hover to see other rain measurements)
** Current wind speed in m/s (hover to see current wind gust speed)